This is the latest recevied weather packets stored in our database for station/object N0QV. If no packets are shown the sender has not sent any weather packets the latest 10 day(s).
| Time | Temp. | Humidity | Pressure | Rain* | Wind** | Luminosity | Snow |
|---|---|---|---|---|---|---|---|
| 1778148053 | 1.67° C | 69% | 1013.7 hPa | 0 mm | - | 0 W/m² | - |
| 1778147750 | 1.67° C | 69% | 1013.8 hPa | 0 mm | - | 0 W/m² | - |
| 1778147447 | 1.67° C | 70% | 1013.8 hPa | 0 mm | - | 0 W/m² | - |
| 1778147143 | 1.67° C | 71% | 1013.9 hPa | 0 mm | - | 0 W/m² | - |
| 1778146840 | 1.67° C | 70% | 1013.8 hPa | 0 mm | - | 0 W/m² | - |
| 1778146537 | 1.67° C | 69% | 1013.8 hPa | 0 mm | - | 0 W/m² | - |
| 1778146236 | 1.67° C | 69% | 1013.6 hPa | 0 mm | - | 0 W/m² | - |
| 1778145932 | 2.22° C | 68% | 1013.7 hPa | 0 mm | - | 0 W/m² | - |
| 1778145629 | 2.22° C | 67% | 1013.8 hPa | 0 mm | - | 0 W/m² | - |
| 1778145326 | 2.22° C | 66% | 1013.7 hPa | 0 mm | - | 0 W/m² | - |
| 1778145021 | 2.22° C | 66% | 1013.9 hPa | 0 mm | - | 0 W/m² | - |
| 1778144717 | 2.78° C | 65% | 1013.7 hPa | 0 mm | - | 0 W/m² | - |
| 1778144415 | 2.78° C | 63% | 1013.9 hPa | 0 mm | - | 0 W/m² | - |
| 1778144112 | 2.78° C | 62% | 1014 hPa | 0 mm | - | 0 W/m² | - |
| 1778143808 | 2.22° C | 65% | 1014 hPa | 0 mm | - | 0 W/m² | - |
| 1778143505 | 2.22° C | 65% | 1013.9 hPa | 0 mm | - | 0 W/m² | - |
| 1778143202 | 2.22° C | 65% | 1013.9 hPa | 0 mm | - | 0 W/m² | - |
| 1778142898 | 1.67° C | 70% | 1013.9 hPa | 0 mm | - | 0 W/m² | - |
| 1778142595 | 1.67° C | 72% | 1014.1 hPa | 0 mm | - | 0 W/m² | - |
| 1778142291 | 1.11° C | 71% | 1014 hPa | 0 mm | - | 0 W/m² | - |
| 1778141987 | 1.67° C | 71% | 1014 hPa | 0 mm | - | 0 W/m² | - |
| 1778141684 | 1.67° C | 69% | 1014.1 hPa | 0 mm | - | 0 W/m² | - |
| 1778141381 | 1.67° C | 70% | 1013.9 hPa | 0 mm | - | 0 W/m² | - |
| 1778141077 | 1.67° C | 70% | 1014.2 hPa | 0 mm | - | 0 W/m² | - |
| 1778140772 | 1.67° C | 68% | 1014 hPa | 0 mm | - | 0 W/m² | - |
* Rain latest hour (hover to see other rain measurements)
** Current wind speed in m/s (hover to see current wind gust speed)